Vertical_Velocity
-3 -1 1 1 -1 -2 1 1 -1 -2 -1 -0 -0 -2 0 -2 -1 -1 -0 -0 -1 1 2 -0 -1 -1 -2
-2 2 1 -0 -1 0 3 3 -2 -0 2 -1 -2 -3 -1 -1 -1 -2 -1 1 0 -1 -1 -1 -1 -1 -1
0 3 -0 -1 2 0 -0 1 0 1 0 -0 -1 -1 -1 -0 0 1 0 -0 0 -0 -1 -1 -0 -1 -1
2 1 1 1 1 2 -1 2 1 -1 1 -1 -0 -1 -2 -1 -2 -1 -1 -1 -1 0 1 0 -0 -1 -1
-2 -1 -1 1 -1 1 -0 -1 1 0 1 -1 0 -1 -1 -0 -0 1 -1 -1 -0 -1 -1 -1 -0 0 1
-1 -1 -1 1 -1 1 0 -0 -2 1 1 -1 1 -1 -2 -1 -1 -1 -1 -0 0 -0 -1 -1 -1 -1 -0
-2 -1 -0 1 -2 -0 -0 -1 -0 -1 -1 -1 -1 -1 -1 0 -0 -1 -2 -2 -1 -0 -0 -0 -1 -2 -2
-0 1 1 -2 -1 -0 -1 0 -1 -1 -0 -1 -1 -2 -1 -2 0 -1 -1 -1 -1 -1 -1 1 0 1 1
-1 -1 -1 -1 -0 -1 0 -1 -2 -2 -0 -1 -1 -0 -0 0 -0 0 1 0 1 1 -0 -0 -1 -0 0
-1 -1 -2 -1 -2 0 -1 -3 -1 -1 0 -2 -1 -1 -1 0 -1 -0 0 1 1 1 1 1 -0 -0 1
-0 -1 -0 -2 0 0 -1 -1 -1 -1 -3 1 -1 -0 -1 -1 1 -1 -1 -0 -0 0 0 1 1 1 -2
-1 0 -1 -1 -0 -2 -2 -2 -0 0 -1 -2 -1 -1 -2 -3 -1 -2 0 1 -1 0 0 1 1 0 -0
1 -0 -1 -1 -1 -1 -1 -1 -1 -1 -2 -2 -0 1 -1 -2 -1 -2 -4 3 0 -0 1 0 0 -0 -1
-0 -1 -0 -1 -2 -1 -1 -2 -1 -1 -1 -1 -1 -1 -1 -1 -1 -2 0 -4 1 0 -3 -4 -4 -1 1
-2 -1 -2 -1 0 -2 -1 -1 -1 -2 -1 -1 -1 -1 -1 -2 -4 -0 0 -1 1 -0 -2 -4 1 1 2
-0 -0 -1 -2 -1 -1 -1 -1 -1 -1 -2 -0 -2 -3 -3 -2 -2 2 -1 -2 0 -0 -0 -5 -9 7 -0
-0 -1 -1 0 -0 -1 0 -0 -1 -0 0 -0 -0 0 -1 -5 0 1 -3 2 -1 -1 2 2 -8 -2 -1
Height
1523 1524 1523 1521 1521 1522 1522 1520 1520 1521 1520 1521 1521 1521 1523 1524 1526 1527 1528 1528 1529 1529 1529 1529 1530 1531 1532
1520 1519 1520 1520 1520 1520 1519 1519 1519 1519 1519 1518 1518 1519 1520 1521 1522 1523 1523 1524 1525 1525 1525 1525 1526 1527 1529
1517 1518 1516 1518 1517 1517 1517 1517 1517 1517 1516 1516 1516 1516 1517 1518 1518 1519 1519 1520 1521 1521 1522 1522 1523 1524 1525
1513 1514 1515 1515 1515 1515 1515 1515 1515 1514 1514 1513 1513 1513 1514 1515 1516 1516 1517 1517 1518 1518 1519 1519 1519 1520 1521
1511 1511 1512 1513 1512 1513 1512 1513 1513 1512 1511 1511 1511 1511 1511 1512 1512 1513 1513 1514 1514 1514 1515 1515 1516 1517 1517
1508 1508 1509 1509 1510 1510 1510 1510 1510 1510 1510 1509 1509 1509 1509 1509 1509 1509 1510 1510 1510 1511 1511 1512 1512 1513 1514
1505 1506 1506 1506 1507 1507 1508 1507 1508 1508 1508 1508 1508 1507 1507 1507 1507 1507 1508 1508 1508 1509 1509 1509 1510 1510 1511
1504 1504 1504 1505 1505 1505 1506 1505 1505 1506 1506 1506 1506 1506 1507 1506 1506 1506 1506 1506 1506 1507 1507 1508 1508 1508 1509
1502 1502 1503 1502 1503 1504 1504 1504 1504 1504 1504 1504 1504 1505 1505 1504 1504 1504 1504 1504 1505 1504 1504 1505 1505 1505 1505
1500 1501 1501 1502 1502 1502 1502 1502 1503 1503 1502 1503 1502 1503 1502 1501 1501 1502 1502 1502 1501 1501 1501 1501 1501 1501 1502
1499 1499 1500 1500 1500 1500 1500 1501 1501 1500 1500 1500 1500 1500 1500 1499 1499 1499 1499 1498 1497 1497 1497 1496 1496 1496 1496
1496 1496 1497 1498 1498 1498 1498 1498 1498 1498 1496 1496 1496 1496 1496 1495 1494 1495 1495 1494 1493 1493 1492 1491 1491 1490 1490
1493 1494 1495 1495 1495 1495 1495 1495 1494 1493 1493 1492 1492 1492 1492 1491 1489 1489 1489 1490 1489 1488 1487 1486 1486 1486 1486
1491 1491 1491 1491 1492 1491 1491 1490 1490 1490 1489 1488 1488 1488 1488 1487 1485 1485 1485 1485 1485 1483 1482 1482 1482 1481 1480
1487 1487 1487 1488 1488 1488 1487 1486 1485 1484 1484 1484 1483 1483 1483 1482 1480 1481 1481 1480 1479 1478 1476 1476 1476 1475 1475
1482 1482 1483 1483 1483 1483 1482 1481 1480 1480 1479 1479 1478 1478 1478 1477 1477 1475 1475 1475 1474 1472 1471 1470 1469 1470 1469
1477 1478 1478 1478 1478 1478 1478 1477 1476 1476 1475 1475 1474 1473 1472 1471 1471 1471 1469 1469 1469 1468 1467 1465 1462 1462 1461